This is the latest recevied weather packets stored in our database for station/object K9MWD. If no packets are shown the sender has not sent any weather packets the latest 10 day(s).
| Time | Temp. | Humidity | Pressure | Rain* | Wind** | Luminosity | Snow |
|---|---|---|---|---|---|---|---|
| 1777557740 | 16.11° C | 86% | 1013.6 hPa | 0 mm | - | 53 W/m² | - |
| 1777557437 | 16.11° C | 86% | 1013.9 hPa | 0 mm | - | 50 W/m² | - |
| 1777557134 | 16.11° C | 86% | 1014.1 hPa | 0 mm | - | 41 W/m² | - |
| 1777556829 | 16.11° C | 86% | 1014 hPa | 0 mm | - | 35 W/m² | - |
| 1777556525 | 16.11° C | 86% | 1014 hPa | 0 mm | - | 38 W/m² | - |
| 1777556225 | 16.11° C | 86% | 1013.9 hPa | 0 mm | - | 37 W/m² | - |
| 1777555921 | 16.11° C | 86% | 1013.8 hPa | 0 mm | - | 38 W/m² | - |
| 1777555617 | 16.11° C | 86% | 1013.6 hPa | 0 mm | - | 38 W/m² | - |
| 1777555314 | 16.11° C | 86% | 1014.1 hPa | 0 mm | - | 32 W/m² | - |
| 1777555010 | 16.11° C | 86% | 1013.5 hPa | 0 mm | - | 40 W/m² | - |
| 1777554707 | 16.11° C | 86% | 1013.4 hPa | 0 mm | - | 42 W/m² | - |
| 1777554404 | 16.11° C | 86% | 1013.3 hPa | 0 mm | - | 34 W/m² | - |
| 1777554101 | 16.11° C | 86% | 1013.1 hPa | 0 mm | - | 34 W/m² | - |
| 1777553797 | 16.11° C | 86% | 1013.4 hPa | 0 mm | - | 34 W/m² | - |
| 1777553495 | 16.11° C | 86% | 1013.4 hPa | 0 mm | - | 30 W/m² | - |
| 1777553195 | 16.11° C | 86% | 1013.5 hPa | 0 mm | - | 24 W/m² | - |
| 1777552891 | 16.11° C | 86% | 1013.6 hPa | 0 mm | - | 30 W/m² | - |
| 1777552586 | 16.11° C | 87% | 1013.6 hPa | 0 mm | - | 23 W/m² | - |
| 1777552283 | 16.11° C | 87% | 1013.5 hPa | 0 mm | - | 22 W/m² | - |
| 1777551980 | 16.11° C | 87% | 1013.2 hPa | 0 mm | - | 25 W/m² | - |
| 1777551677 | 16.11° C | 87% | 1012.7 hPa | 0 mm | - | 29 W/m² | - |
| 1777551375 | 16.11° C | 86% | 1012.9 hPa | 0 mm | - | 25 W/m² | - |
| 1777551071 | 16.11° C | 86% | 1013.2 hPa | 0 mm | - | 10 W/m² | - |
| 1777550768 | 16.11° C | 85% | 1012.9 hPa | 0 mm | - | 10 W/m² | - |
| 1777550464 | 16.11° C | 85% | 1013.1 hPa | 0 mm | - | 6 W/m² | - |
* Rain latest hour (hover to see other rain measurements)
** Current wind speed in m/s (hover to see current wind gust speed)